Location: Apollinopolis Magna
(24.9792°N, 32.8772°E)
Time: 19:32:38
(UTC+00:00)

SL-8 Rocket - Pass Details

Date: 02 March 2021
Orbit: 957 x 991 km, 82.9° (Epoch: 09 April)

Event Time Altitude Azimuth Distance (km) Brightness Sun altitude
Rises 17:34:46 0° 189° (S) 3,679 7.1 -24.2°
Reaches altitude 10° 17:37:18 10° 192° (SSW) 2,729 6.4 -24.8°
Maximum altitude 17:43:32 70° 275° (W) 1,034 4.2 -26.2°
Drops below altitude 10° 17:49:44 10° 359° (N) 2,717 6.4 -27.6°
Sets 17:52:16 0° 2° (N) 3,661 7.1 -28.2°
